sat.trackr.live / text

‹ back to catalog

BANDWAGON-4 OBJECT D

NORAD 66296 · 2025-248D

PAYLOAD ACTIVE UNKNOWN

§ Identity

Operator
Country
TBD
Launch date
2025-11-02
Launch site
AFETR
Launch vehicle
Mass (kg)
RCS (m²)

External: N2YO · Heavens-Above · Gunter

§ Orbital elements

Epoch: 2026-05-24T15:31:48.619200Z

Period
94.65 min
Inclination
45.4043°
Eccentricity
0.0006619
Mean motion
15.21341834 rev/d
Perigee alt
497.2 km
Apogee alt
506.3 km
Semi-major
6,879.9 km
B*
2.3195e-4
RAAN
246.7507°
Arg perigee
284.5754°
Mean anomaly
75.4399°
Rev number
3,094

§ Raw data

BANDWAGON-4 OBJECT D1 66296U 25248D   26144.64709050  .00005008  00000+0  23195-3 0  99932 66296  45.4043 246.7507 0006619 284.5754  75.4399 15.21341834 30944

JSON: /api/v1/satellites/66296 · /tle

For live sub-satellite position, see the globe view (requires WebGL).

§ Visibility from observer

Set your observer location to see the next 7 days of passes ≥ 10°. The values pass through the URL so the page stays shareable.

No JS? Fill the form by hand. The geolocation button needs JavaScript.